Weather History for Portage Glacier, AK

Change the Weather History Date:

Tuesday, October 9, 2012

  Actual Average Record
Temperature  
Mean Temperature 46 °F -  
Max Temperature 48 °F - - ()
Min Temperature 44 °F - - ()
Degree Days  
Heating Degree Days 18    
Moisture  
Dew Point 44 °F    
Average Humidity 94    
Maximum Humidity 100    
Minimum Humidity 83    
Precipitation  
Precipitation 0.00 in - - ()
Sea Level Pressure  
Sea Level Pressure 30.13 in    
Wind  
Wind Speed 9 mph (WNW)    
Max Wind Speed 12 mph    
Max Gust Speed 20 mph    
Visibility 10 miles    
Events      
T = Trace of Precipitation, MM = Missing Value Source: NWS Daily Summary

Daily Weather History Graph

Daily Weather History Graph

Search for Another Location

Airport:

Trip Planner

Search our weather history database for the weather conditions in past years. The results will help you decide how hot, cold, wet, or windy it might be!

Date:

Astronomy

Oct. 09, 2012 Rise Set
Actual Time 8:23 AM AKDT 7:00 PM AKDT
Civil Twilight 7:40 AM AKDT 7:43 PM AKDT
Nautical Twilight 6:50 AM AKDT 8:32 PM AKDT
Astronomical Twilight 6:00 AM AKDT 9:22 PM AKDT
Moon 12:35 AM AKDT (10/9) 4:55 PM AKDT (10/9)
Length of Visible Light 12h 02m
Length of Day
10h 37m
Waning Crescent, 35% of the Moon is Illuminated
Oct 9
Waning Crescent
Oct 15
New
Oct 21
First Quarter
Oct 29
Full
Nov 6
Last Quarter

Hourly Weather History & Observations

Time (AKDT) Temp. Windchill Dew Point Humidity Pressure Visibility Wind Dir Wind Speed Gust Speed Precip Events Conditions
12:53 AM 46.0 °F 41.4 °F 46.0 °F 100% 30.16 in 9.0 mi WNW 9.2 mph - N/A   Overcast
1:23 AM 46.0 °F 41.4 °F 46.0 °F 100% 30.16 in 10.0 mi WNW 9.2 mph - N/A   Overcast
1:33 AM 46.0 °F 41.4 °F 46.0 °F 100% 30.16 in 10.0 mi West 9.2 mph - N/A   Overcast
1:53 AM 46.0 °F 41.0 °F 46.0 °F 100% 30.16 in 10.0 mi West 10.4 mph - N/A   Overcast
2:53 AM 46.0 °F 41.0 °F 45.0 °F 96% 30.15 in 10.0 mi West 10.4 mph 19.6 mph N/A   Overcast
3:39 AM 46.0 °F 41.4 °F 45.0 °F 96% 30.14 in 10.0 mi WNW 9.2 mph - N/A   Overcast
3:53 AM 46.0 °F 41.4 °F 45.0 °F 96% 30.14 in 10.0 mi WNW 9.2 mph - N/A   Overcast
4:53 AM 46.0 °F 41.0 °F 45.0 °F 96% 30.14 in 10.0 mi WNW 10.4 mph - N/A   Overcast
5:53 AM 46.0 °F 41.9 °F 44.1 °F 93% 30.13 in 10.0 mi WNW 8.1 mph - N/A   Overcast
6:53 AM 45.0 °F 41.2 °F 44.1 °F 97% 30.13 in 10.0 mi WNW 6.9 mph - N/A   Overcast
7:53 AM 45.0 °F 41.2 °F 44.1 °F 97% 30.13 in 10.0 mi WNW 6.9 mph - N/A   Overcast
8:53 AM 45.0 °F 40.6 °F 44.1 °F 97% 30.13 in 10.0 mi WNW 8.1 mph - N/A   Overcast
9:53 AM 45.0 °F 40.6 °F 44.1 °F 97% 30.14 in 10.0 mi WNW 8.1 mph - N/A   Overcast
10:53 AM 45.0 °F 40.6 °F 44.1 °F 97% 30.14 in 10.0 mi WNW 8.1 mph - N/A   Overcast
11:02 AM 45.0 °F 40.1 °F 44.1 °F 97% 30.13 in 10.0 mi WNW 9.2 mph - N/A   Overcast
11:33 AM 46.0 °F 41.4 °F 44.1 °F 93% 30.13 in 10.0 mi WNW 9.2 mph - N/A   Overcast
11:53 AM 46.0 °F 41.9 °F 44.1 °F 93% 30.14 in - WNW 8.1 mph - N/A   Overcast
12:53 PM 46.0 °F 41.0 °F 44.1 °F 93% 30.14 in - WNW 10.4 mph - N/A   Overcast
1:53 PM 46.9 °F - 44.1 °F 90% 30.13 in - WNW 10.4 mph 17.3 mph N/A   Overcast
2:03 PM 46.9 °F - 44.1 °F 90% 30.12 in - West 10.4 mph - N/A   Overcast
2:53 PM 48.0 °F - 43.0 °F 83% 30.11 in 10.0 mi West 10.4 mph 18.4 mph N/A   Overcast
3:00 PM 48.0 °F - 43.0 °F 83% 30.11 in 10.0 mi West 10.4 mph - N/A   Overcast
3:53 PM 48.0 °F - 44.1 °F 86% 30.11 in 10.0 mi West 9.2 mph - N/A   Overcast
4:11 PM 48.0 °F - 44.1 °F 86% 30.11 in 10.0 mi West 11.5 mph 18.4 mph N/A   Overcast
4:53 PM 46.9 °F - 44.1 °F 90% 30.11 in 10.0 mi West 9.2 mph - N/A   Overcast
5:38 PM 46.9 °F - 45.0 °F 93% 30.10 in 10.0 mi WNW 9.2 mph - N/A   Overcast
5:53 PM 46.9 °F - 44.1 °F 90% 30.10 in 10.0 mi WNW 6.9 mph - N/A   Overcast
6:53 PM 46.0 °F 41.9 °F 44.1 °F 93% 30.10 in 10.0 mi West 8.1 mph - N/A   Overcast
7:53 PM 46.0 °F 41.9 °F 45.0 °F 96% 30.10 in 8.0 mi WNW 8.1 mph - N/A   Overcast
8:53 PM 45.0 °F 41.2 °F 44.1 °F 97% 30.10 in 10.0 mi WNW 6.9 mph - N/A   Overcast
9:53 PM 45.0 °F 41.8 °F 44.1 °F 97% 30.10 in 10.0 mi West 5.8 mph - N/A   Overcast
10:53 PM 45.0 °F 41.8 °F 44.1 °F 97% 30.10 in 10.0 mi West 5.8 mph - N/A   Overcast
11:53 PM 44.1 °F 40.8 °F 44.1 °F 100% 30.09 in 10.0 mi West 5.8 mph - N/A   Overcast